Regional Weather Roundup
Issued by NWS Burlington, VT

Home | Current Version | Previous Version | Text Only | Print | Product List | Glossary On
Versions: 1 2 3 4 5 6 7 8 9 10 11 12 13 14 15 16 17 18 19 20 21 22 23 24 25 26 27 28 29 30 31 32 33 34 35 36 37 38 39 40 41 42 43 44 45 46 47 48 49 50
000
ASUS41 KBTV 291430
RWRBTV
VERMONT REGIONAL WEATHER ROUNDUP
NATIONAL WEATHER SERVICE BURLINGTON VT
1000 AM EDT MON AUG 29 2016

NOTE: "FAIR" INDICATES FEW OR NO CLOUDS BELOW 12,000 FEET WITH NO
SIGNIFICANT WEATHER AND/OR OBSTRUCTIONS TO VISIBILITY.

* THESE REPORTS ARE NOT UNDER NWS QUALITY CONTROL AND/OR DO NOT
  REPORT WEATHER SUCH AS PRECIPITATION AND FOG.

VTZ001>019-291500-
_____VERMONT_____


CITY           SKY/WX    TMP DP  RH WIND       PRES   REMARKS
BURLINGTON     MOSUNNY   72  54  53 NW17      30.13R
MONTPELIER     MOSUNNY   69  57  65 NW13G23   30.16R
MORRISVILLE    PTSUNNY   70  56  61 NW12G18   30.14R
ST. JOHNSBURY*   N/A     72  57  59 MISG      30.08R
LYNDONVILLE*   CLOUDY    66  58  75 W9        30.13R
MIDDLEBURY*    FAIR      74  57  55 N14G20    30.13S
RUTLAND*       CLOUDY    73  61  64 NW9       30.13R
SPRINGFIELD    MOSUNNY   76  60  57 NW10G17   30.10R
HIGHGATE*      FAIR      69  59  70 NW8G16    30.13S
NEWPORT*       CLOUDY    65  58  77 NW14G20   30.12S
BENNINGTON     MOSUNNY   75  62  64 W7        30.14R
SUTTON*          N/A     66 N/A N/A MISG        N/A
GALLUP MILLS*    N/A     64 N/A N/A MISG        N/A
UNION VILLAGE*   N/A     75 N/A N/A MISG        N/A
MT. MANSFIELD*   N/A     52 N/A N/A NW40G54     N/A

_____LAKE CHAMPLAIN_____


CITY           SKY/WX    TMP DP  RH WIND       PRES   REMARKS
BURTON ISLAND*   N/A     68  61  77 W10         N/A
COLCHESTER RF*   N/A     70  57  64 N23         N/A
DIAMOND ISL*     N/A     73  55  53 NW12G25     N/A

$$

NYZ007-026>031-035-052-083-087-291500-
_____NORTHERN NEW YORK_____


CITY           SKY/WX    TMP DP  RH WIND       PRES   REMARKS
PLATTSBURGH    MOSUNNY   73  56  54 NW15      30.14S
SARANAC LAKE   PTSUNNY   66  53  63 NW7       30.20R
MASSENA        MOSUNNY   68  56  65 NW9       30.21R
OGDENSBURG*    MOSUNNY   70  57  64 N8        30.22R
POTSDAM*       PTSUNNY   66  61  82 NW10      30.22R
STARK FALLS*     N/A     32 N/A N/A NW5         N/A  WCI  27
WATERTOWN      SUNNY     73  54  51 N10       30.22R
FT DRUM        MOSUNNY   70  57  64 N9        30.22R
ALBANY         MOSUNNY   77  64  64 NW13      30.14R
GLENS FALLS    SUNNY     77  58  51 NW7       30.14R

$$
NHZ002-005-011-291500-
_____NEW HAMPSHIRE_____


CITY           SKY/WX    TMP DP  RH WIND       PRES   REMARKS
LEBANON        MOSUNNY   78  57  48 NW12      30.09R
KEENE          MOSUNNY   77  63  61 NW12      30.09F
MT WASHINGTON  FOG       46  46 100 W63G76      N/A  VSB 0
PLYMOUTH       FAIR      75  56  50 NW14G23   30.07R
WHITEFIELD     PTSUNNY   70  58  65 W9G20     30.08R

$$

_____REGIONAL QUEBEC LOCATIONS_____


CITY           SKY/WX    TMP DP  RH WIND       PRES   REMARKS
MONTREAL       PTSUNNY   70  55  60 NW22G31   30.13R
QUEBEC CITY    PTSUNNY   68  55  64 W17G23    29.99R
SHERBROOKE     CLOUDY    66  57  72 W13G18    30.07R

_____REGIONAL ONTARIO LOCATIONS_____


CITY           SKY/WX    TMP DP  RH WIND       PRES   REMARKS
OTTAWA         MOSUNNY   68  55  64 NW14      30.22R

______KEY______
VSB  - VISIBILITY IN MILES
WCI  - WIND CHILL INDEX
HX   - HEAT INDEX
$$
NNNN




USA.gov is the U.S. government's official web portal to all federal, state and local government web resources and services.